Skip Page Navigation
NASA JPL Caltech
NASA Logo - Jet Propulsion Laboratory + View the NASA Portal
+ Near-Earth Object (NEO) Program
Search JPL
JPL Home Earth Solar System Stars & Galaxies Technology
JPL Solar System Dynamics
BODIES ORBITS EPHEMERIDES TOOLS PHYSICAL DATA DISCOVERY FAQ SITE MAP
JPL Small-Body Database Browser
Search: [ help ]  
304233 Majaess (2006 RE3)
Classification: Main-belt Asteroid          SPK-ID: 2304233
Ephemeris | Orbit Diagram | Orbital Elements | Physical Parameters | Discovery Circumstances | Close-Approach Data ]

[ show orbit diagram ]
Orbital Elements at Epoch 2457000.5 (2014-Dec-09.0) TDB
Reference: JPL 4 (heliocentric ecliptic J2000)
 Element Value Uncertainty (1-sigma)   Units 
e .06987473113256042 1.1669e-07  
a 2.863832352016561 7.1853e-08 AU
q 2.663722836410676 3.4309e-07 AU
i 12.62138967051272 1.1892e-05 deg
node 99.65124903441722 5.3115e-05 deg
peri 346.760281169322 0.00010284 deg
M 191.4959836688522 9.3256e-05 deg
tp 2457829.066879751471
(2017-Mar-16.56687975)
0.00047568 JED
period 1770.189715385388
4.85
6.6621e-05
1.824e-07
d
yr
n .2033680327431031 7.6537e-09 deg/d
Q 3.063941867622447 7.6874e-08 AU
  Orbit Determination Parameters
   # obs. used (total)      82  
   data-arc span      4151 days (11.36 yr)  
   first obs. used      2003-01-26  
   last obs. used      2014-06-08  
   planetary ephem.      DE431  
   SB-pert. ephem.      SB431-BIG16  
   condition code      0  
   fit RMS      .50622  
   data source      ORB  
   producer      Otto Matic  
   solution date      2014-Jun-16 18:48:58  

Additional Information
 Earth MOID = 1.68139 AU 
 T_jup = 3.261 
[ show covariance matrix ]

Ephemeris | Orbit Diagram | Orbital Elements | Physical Parameters | Discovery Circumstances | Close-Approach Data ]

Physical Parameter Table
Parameter Symbol Value Units Sigma Reference Notes
absolute magnitude H 16.2 mag n/a MPO258175  

304233 Majaess           Discovered 2006 Sept. 14 by D. D. Balam at Mauna Kea.
Daniel Majaess (b. 1984) is a young Canadian observational astronomer who researches the Cepheid distance scale, variable stars, and the Milky Way's spiral structure and its many star clusters. He frequently makes innovative use of photometric surveys and data from small telescopes.
NOTE: some special characters may not display properly (any characters within {} are an attempt to place the proper accent above a character)
Reference: 20120406/MPCPages.arcLast Updated: 2012-04-09

[ show close-approach data ]
Alternate Designations
 2006 RE3 = 2003 BC91 = 2003 BH9 = 2009 JM3 
Ephemeris | Orbit Diagram | Orbital Elements | Physical Parameters | Discovery Circumstances | Close-Approach Data ]
ABOUT SSD CREDITS/AWARDS PRIVACY/COPYRIGHT GLOSSARY LINKS
FirstGov 2014-Oct-26 05:57 UT
(server date/time)  
NASA Home Page
Site Manager:   Donald K. Yeomans
Webmaster  Alan B. Chamberlin